ECMWFNIL_700_rhum_021.txt.gz
RH
13 13 13 14 14 14 16 17 19 21 22 23 23 20 21 28 38 46 48 49 53 53 49 38 25 21 24 29 34 36 35 36 38 40 43 45 46 46 46 47 47 46
13 13 13 13 13 13 15 16 17 20 22 23 24 23 20 23 32 38 41 44 46 43 40 34 26 24 29 33 36 36 35 36 39 42 44 45 47 49 50 51 52 51
13 13 13 13 13 13 14 15 16 19 21 22 24 24 20 20 27 32 33 37 37 32 31 28 24 27 33 35 36 35 35 38 41 42 44 46 49 52 55 58 59 60
13 13 13 12 13 13 13 14 16 18 20 21 22 24 22 20 23 27 28 28 27 24 24 24 23 28 34 35 34 35 37 40 43 43 45 47 50 53 57 58 59 62
13 13 13 13 13 13 13 13 15 17 20 21 21 23 24 21 20 23 23 22 21 19 20 22 22 28 34 33 33 36 40 42 44 44 46 46 48 52 56 56 56 58
13 13 13 14 13 13 13 13 14 16 18 21 21 22 24 22 20 19 20 19 18 16 18 19 21 27 32 32 34 38 41 42 43 43 43 43 44 47 51 55 56 57
14 14 13 14 14 14 14 14 14 16 18 20 21 22 22 22 19 18 17 17 16 15 17 19 21 26 31 32 34 38 40 40 40 39 39 39 41 43 47 51 55 57
21 17 15 15 15 14 14 15 15 16 17 19 20 21 21 20 19 17 16 15 15 15 16 19 22 26 31 32 33 36 38 39 39 38 38 38 39 42 45 48 53 56
37 28 23 19 18 18 17 17 16 17 18 19 20 21 20 19 17 16 15 14 14 15 17 20 23 26 30 31 32 35 37 39 39 38 38 38 39 43 46 49 52 55
46 38 30 25 22 21 21 21 21 20 20 20 20 22 22 19 17 15 14 14 13 15 18 21 23 26 29 31 32 34 37 38 39 39 38 39 41 44 49 51 53 55
47 42 36 29 24 22 22 23 24 23 23 23 23 24 24 21 18 15 14 14 13 14 19 23 25 26 28 31 32 34 36 38 38 38 38 39 41 46 50 52 54 56
45 43 40 36 31 26 24 23 23 23 23 23 23 24 24 21 18 15 13 13 13 13 18 24 26 27 28 30 32 34 35 37 37 38 38 38 40 45 50 52 53 54
40 41 41 40 37 34 32 28 25 23 21 21 21 21 20 19 17 14 12 13 14 13 16 22 26 28 28 29 31 33 34 36 37 37 38 37 39 44 49 51 51 50
36 38 39 41 40 40 39 32 27 23 21 20 19 18 17 17 16 14 12 13 15 14 15 20 25 27 28 29 29 31 33 35 36 36 37 37 39 43 47 48 48 47
35 36 38 40 40 40 40 36 28 22 20 19 17 16 16 16 15 13 11 12 15 15 15 18 23 27 28 28 28 29 32 34 35 35 36 37 38 41 45 46 45 46
38 37 37 39 37 36 38 40 33 25 21 19 17 15 13 13 13 10 9 12 15 16 16 17 21 25 28 27 27 28 31 33 35 35 35 37 39 41 44 45 44 45
39 37 36 36 35 34 36 41 39 31 24 21 19 17 13 10 9 7 7 10 14 17 17 17 20 24 27 29 29 30 31 32 34 35 35 36 39 43 45 44 44 44
36 37 35 34 34 34 35 39 41 37 30 24 22 19 15 9 6 6 6 8 13 17 18 19 20 22 26 29 31 32 32 33 34 34 35 37 40 43 45 44 44 42
33 35 35 34 34 35 37 39 40 37 33 29 26 22 19 14 8 5 5 7 11 16 19 21 22 23 26 28 30 32 33 34 34 33 35 38 41 43 44 43 41 40
30 32 32 33 33 33 35 36 35 33 31 31 30 26 22 19 13 7 5 6 10 14 18 22 23 24 27 28 29 31 32 34 34 34 36 39 41 43 42 40 39 36
28 28 30 31 32 31 31 31 31 32 31 30 32 31 27 22 18 12 7 6 8 12 16 20 23 25 27 29 30 30 31 33 33 34 37 39 40 41 40 38 36 32
29 29 29 30 32 32 30 31 31 31 32 33 34 35 32 27 22 17 13 7 6 10 14 17 20 22 24 27 29 29 30 32 34 36 37 37 38 38 38 37 32 29
29 30 29 30 33 34 34 34 35 35 37 37 36 36 37 33 27 22 19 12 7 8 12 15 18 20 22 24 25 27 29 32 35 36 35 36 36 36 36 34 29 30
29 30 31 31 32 33 34 36 38 40 41 40 38 37 39 40 35 27 22 18 13 9 9 13 17 19 20 22 22 23 26 29 32 34 34 34 35 34 34 31 28 31
28 30 30 29 28 28 29 31 34 38 39 39 39 39 41 44 44 35 27 23 20 14 9 9 14 18 19 21 22 23 24 26 28 30 32 33 33 33 32 28 27 29
28 29 28 26 23 22 23 26 31 35 35 35 37 39 41 44 45 41 33 27 24 21 15 11 10 13 17 19 21 22 23 25 26 29 31 32 33 32 29 26 26 26

ECMWFNIL_700_rhum_024.txt.gz
RH
10 11 12 13 14 15 16 17 19 21 21 21 21 20 18 18 24 34 43 49 52 54 54 52 43 27 20 23 21 24 32 36 36 35 35 40 42 42 42 43 45 45
10 12 12 13 13 14 14 15 17 19 20 21 21 22 22 18 18 24 35 43 47 50 52 50 41 27 22 24 21 24 33 35 35 35 37 42 44 46 48 51 54 54
10 12 13 13 13 13 14 14 15 16 18 19 20 22 23 21 18 17 23 32 37 43 48 47 40 29 23 24 24 27 33 36 35 34 37 42 45 48 53 56 59 60
10 11 13 13 13 14 13 13 14 15 16 17 19 20 22 22 20 17 17 22 28 34 41 43 39 35 28 24 27 31 34 36 33 32 37 43 46 49 53 56 56 57
11 11 12 13 13 14 13 13 13 14 15 17 18 18 20 21 22 20 16 17 22 26 34 38 38 38 32 26 30 34 35 35 32 31 37 42 46 48 51 55 55 54
12 12 12 13 14 13 13 13 13 13 14 16 17 17 19 20 21 22 18 16 18 21 27 32 32 34 31 26 30 34 34 34 30 31 38 42 44 46 48 52 54 54
12 12 12 12 13 13 13 13 13 13 13 14 16 16 18 20 20 21 20 17 17 18 22 25 25 27 26 24 28 32 31 31 29 32 39 41 42 43 44 47 50 51
12 12 12 12 13 13 13 13 13 13 13 13 14 15 17 19 19 19 20 19 17 15 17 20 21 21 22 22 26 29 29 28 28 33 38 40 40 40 41 43 45 46
21 16 14 13 12 12 12 13 13 13 14 13 13 14 15 17 18 18 19 20 18 15 15 17 19 19 19 21 24 27 28 27 28 33 37 38 38 38 39 40 41 43
37 31 25 20 16 15 14 13 13 13 14 14 14 14 15 16 18 18 18 19 19 17 15 15 16 17 17 19 23 26 26 26 28 32 35 37 37 37 38 39 40 41
46 45 41 35 29 23 20 17 15 15 15 15 15 15 15 16 17 18 18 19 20 19 16 14 15 15 16 17 21 25 26 26 27 30 34 36 37 38 38 38 39 41
47 48 48 47 42 37 32 26 22 19 18 17 17 16 17 17 17 18 18 19 20 21 18 15 14 15 15 16 19 24 25 26 26 29 32 35 37 38 38 38 38 40
44 45 47 49 48 44 39 33 28 24 21 20 20 19 19 20 20 20 20 20 21 22 21 18 15 14 14 15 18 23 25 25 26 27 30 33 36 38 38 37 37 39
41 43 45 46 48 45 40 36 31 28 25 22 21 21 21 22 22 22 22 23 23 24 24 21 17 14 14 13 16 21 25 25 25 26 28 30 34 37 38 37 36 38
37 41 43 44 45 42 37 35 35 33 31 27 23 22 23 23 23 23 23 24 25 25 25 23 18 13 13 13 14 18 24 25 25 26 27 28 31 34 37 37 35 37
35 38 40 41 41 38 33 34 36 36 35 31 26 24 24 25 24 23 22 22 22 22 22 21 18 13 12 12 13 15 21 25 26 26 26 27 28 31 35 37 36 36
31 32 35 36 36 35 33 33 36 38 36 34 31 26 25 25 23 22 21 19 18 18 18 18 16 13 11 12 13 14 17 23 26 26 27 27 27 28 31 35 35 35
29 30 32 32 32 33 33 34 38 40 39 38 36 31 27 26 24 22 21 20 18 16 15 14 14 12 9 11 14 14 15 19 24 27 27 26 25 25 28 32 35 35
29 30 31 32 32 33 34 36 40 42 40 38 39 38 35 31 27 26 24 22 20 17 14 13 12 10 8 9 13 15 14 16 21 25 27 27 26 25 26 30 33 34
28 30 32 33 34 35 36 37 39 41 40 39 40 41 40 36 32 30 26 24 21 19 16 12 10 9 7 7 11 15 16 15 18 22 25 27 27 26 27 29 32 34
27 29 32 34 35 36 36 36 36 37 38 38 39 39 38 37 36 34 30 27 25 22 19 15 11 8 6 6 9 13 16 16 17 19 22 25 27 28 29 30 32 33
26 29 32 33 34 33 32 32 32 32 33 35 36 37 37 37 36 35 34 32 30 27 24 20 15 11 8 6 6 11 16 18 17 18 19 22 25 27 30 32 33 34
26 28 30 31 31 30 28 28 29 30 32 34 35 36 36 35 34 36 37 35 33 31 28 25 21 16 12 8 6 9 15 18 19 19 20 21 23 25 28 30 32 34
27 27 28 28 29 29 28 28 30 32 34 35 36 37 36 36 38 40 38 36 35 35 33 31 28 23 18 13 8 7 11 17 19 20 20 22 23 24 26 28 30 33
26 26 27 28 28 29 29 30 32 34 36 37 38 40 41 42 45 44 41 38 38 38 38 36 34 30 24 19 13 8 8 13 18 19 20 22 23 23 25 26 28 31
24 25 26 26 27 28 30 32 33 34 36 37 38 39 42 44 46 46 45 44 42 41 41 39 37 34 30 25 21 16 10 9 14 18 19 20 22 23 24 25 27 29

ECMWFNIL_700_rhum_030.txt.gz
RH
13 13 12 10 10 10 10 11 10 10 9 10 11 12 12 12 14 16 18 26 32 34 35 35 35 38 41 43 44 46 45 38 35 38 36 33 34 32 29 30 32 36
14 14 13 11 11 10 10 10 10 9 9 10 11 12 15 15 14 14 14 18 25 30 33 33 33 36 39 41 42 45 46 41 33 33 34 34 35 32 29 31 33 39
15 14 14 13 12 11 10 10 9 8 8 11 12 12 15 17 17 16 14 14 16 21 26 27 29 32 36 39 41 43 45 44 37 32 31 32 34 34 30 31 35 41
14 14 14 14 13 12 10 9 8 8 8 10 12 13 14 16 17 18 18 16 14 15 18 20 21 26 32 35 38 41 42 42 38 32 30 30 32 33 32 30 34 42
14 14 14 14 14 13 11 8 7 7 8 9 12 13 14 15 16 17 18 19 18 17 16 17 16 18 23 28 31 35 38 40 39 33 31 31 31 32 32 30 31 38
13 13 13 14 14 14 10 7 6 6 7 9 11 13 14 15 15 15 16 17 19 19 19 19 18 15 16 19 23 28 30 34 37 35 32 32 31 32 32 30 30 34
12 12 13 13 13 14 11 7 6 6 7 9 10 12 13 15 15 14 14 15 16 18 18 19 20 19 16 15 16 20 22 25 30 34 33 30 29 32 34 31 29 31
10 11 12 12 12 12 11 7 6 7 8 9 10 12 12 13 14 14 14 14 14 16 17 17 18 19 19 17 14 15 16 18 22 27 30 30 28 30 34 32 28 28
9 10 10 11 11 11 10 8 6 6 8 9 10 11 12 13 13 13 13 13 14 14 15 16 16 17 18 18 17 15 14 14 16 20 24 27 27 27 29 31 29 27
8 9 9 10 10 10 10 9 7 7 8 9 10 11 12 13 13 13 13 13 13 13 13 14 14 15 16 17 17 17 16 15 14 15 17 20 24 25 26 27 28 27
6 7 8 9 10 10 10 9 9 9 8 9 11 11 11 12 13 13 13 12 13 13 13 13 13 13 14 15 16 17 18 18 16 15 14 15 18 22 23 24 26 26
5 5 6 7 8 9 9 10 10 10 10 9 10 11 11 12 13 13 13 13 13 13 13 13 13 14 14 14 15 16 17 18 19 18 15 13 13 16 19 21 23 25
8 7 5 5 7 7 8 9 9 9 10 10 10 11 12 12 12 13 13 13 13 13 13 14 14 14 14 14 15 15 16 17 18 19 19 16 13 12 14 17 19 22
14 13 12 10 8 8 8 8 9 9 9 10 10 11 11 12 12 12 13 13 13 13 13 14 14 14 14 15 15 15 16 17 18 18 19 19 16 13 12 13 15 18
24 21 20 20 18 16 15 14 14 14 14 15 15 15 15 15 14 14 14 14 14 14 14 14 15 15 16 16 16 16 17 18 19 20 20 20 20 17 13 11 11 13
33 29 27 27 27 26 26 26 27 28 28 27 27 27 27 26 24 23 21 20 19 19 19 19 18 18 18 18 18 18 19 19 20 21 21 22 21 20 16 13 11 11
36 35 33 32 31 31 33 35 37 39 39 39 40 39 38 37 36 35 32 27 24 23 22 21 20 19 19 19 20 21 21 21 21 21 21 22 22 21 18 14 11 10
31 35 37 36 35 35 36 38 41 43 43 43 44 45 43 40 38 37 37 34 27 23 22 21 20 21 21 21 22 22 23 24 24 24 22 20 19 18 17 15 12 10
26 31 34 36 37 37 38 39 41 41 41 42 42 44 45 42 36 35 38 39 33 26 23 22 23 23 23 24 24 25 27 27 26 24 23 21 18 17 16 14 11 10
23 26 29 33 36 38 38 39 39 39 39 40 41 42 42 40 37 33 33 34 33 28 24 23 24 24 24 26 27 28 31 33 32 29 25 21 19 17 16 14 11 10
23 24 26 29 32 35 37 38 39 39 39 39 39 38 37 36 36 33 29 27 28 28 27 25 24 24 26 26 28 30 33 36 38 37 33 27 23 21 19 17 14 11
25 25 26 27 29 32 34 36 38 39 39 39 38 35 33 33 33 33 30 27 26 28 29 27 26 27 27 27 28 32 34 36 37 39 38 35 30 27 25 23 20 17
25 26 26 27 28 29 31 33 35 37 38 39 38 36 32 30 29 30 30 29 28 29 29 28 29 30 29 28 29 30 33 34 35 38 39 37 35 34 32 29 27 25
23 25 26 27 27 28 30 31 33 34 36 37 37 36 33 30 28 27 28 29 29 28 28 29 30 32 32 31 30 29 30 30 33 38 39 36 35 36 36 35 33 32
19 23 25 26 27 28 29 30 31 32 33 33 34 34 33 32 29 27 27 28 29 29 30 30 31 32 33 32 31 31 30 29 31 34 34 32 34 36 37 37 37 36
14 18 21 24 26 28 29 30 30 30 30 31 31 31 32 32 30 29 29 29 30 31 31 30 30 31 32 32 32 32 32 32 32 30 28 30 35 37 39 39 40 40

ECMWFNIL_700_rhum_033.txt.gz
RH
14 14 13 13 11 10 10 10 10 9 8 8 7 7 9 10 10 11 18 28 33 35 36 34 32 32 32 31 31 33 36 38 37 34 35 36 34 33 30 28 29 32
13 13 13 12 11 10 9 9 9 10 9 8 7 8 9 9 9 10 13 17 23 26 29 31 32 32 31 30 30 30 30 32 37 34 31 33 34 34 32 29 29 32
12 12 12 12 11 10 9 9 9 9 10 9 8 9 10 9 9 11 12 12 15 20 22 25 29 31 31 30 29 30 28 28 33 34 30 30 32 34 33 31 29 30
12 12 13 12 12 11 10 10 10 9 10 9 8 10 11 11 11 12 13 14 14 16 17 17 19 22 26 26 25 27 28 28 30 31 29 28 29 32 33 32 31 30
13 13 13 14 13 13 13 12 11 10 9 9 8 9 11 12 12 12 14 15 15 16 16 15 13 14 17 19 19 20 22 24 26 27 27 28 29 30 32 32 31 31
13 14 14 14 14 14 14 13 12 11 9 8 7 7 10 11 12 13 13 14 16 17 18 19 18 16 15 15 15 15 15 17 20 21 22 26 28 30 31 31 32 32
12 13 14 14 14 14 14 14 14 12 9 7 6 7 9 11 11 12 13 14 15 16 17 19 19 19 18 16 15 15 15 15 16 16 17 20 24 27 29 30 31 32
11 12 13 13 14 14 14 15 14 13 10 7 6 6 8 10 11 11 12 13 14 15 16 16 17 18 18 17 17 17 17 16 15 14 14 15 18 22 25 28 30 32
10 11 11 12 13 13 14 14 14 14 12 8 6 6 7 9 10 11 11 11 12 13 14 15 15 16 16 16 16 17 17 18 17 16 15 14 13 15 20 24 28 30
10 10 10 11 11 12 13 14 14 15 13 9 6 6 7 8 9 11 12 12 11 12 12 13 14 14 14 14 14 15 15 16 17 17 17 16 14 13 14 17 21 25
9 9 9 10 10 10 11 12 13 14 13 11 7 6 7 8 8 10 12 12 12 11 11 12 12 13 13 13 13 13 14 14 15 15 15 16 16 15 13 13 14 18
8 8 8 8 9 9 10 11 12 12 12 11 8 7 7 7 8 9 10 11 12 12 12 12 12 12 12 13 13 13 13 14 14 15 15 14 14 15 14 13 12 12
6 7 7 7 8 8 9 10 10 11 11 10 9 7 7 8 9 9 10 11 11 12 12 12 12 12 12 13 13 13 13 14 14 14 15 15 15 15 15 15 14 12
6 5 5 6 7 7 8 8 8 9 9 9 9 8 8 8 9 9 10 10 11 12 12 12 12 12 12 13 13 13 14 14 15 15 15 16 17 17 18 17 15 14
13 7 5 5 6 6 6 7 7 8 8 9 9 8 9 9 9 10 10 10 11 11 11 12 12 13 13 14 14 15 15 16 16 17 17 18 18 18 19 18 16 15
26 17 9 6 6 6 5 6 7 7 7 8 8 8 9 9 9 10 10 10 11 12 13 14 14 15 16 17 17 17 18 19 19 19 19 20 20 19 19 18 17 16
34 29 21 14 10 9 8 7 7 7 7 7 8 8 9 9 10 12 13 15 17 17 18 18 18 19 19 20 21 21 22 22 22 22 22 21 21 21 20 20 19 18
34 35 32 27 21 18 16 14 12 11 10 11 12 14 16 17 19 22 23 24 24 23 21 19 19 20 21 22 24 25 26 26 26 26 25 23 23 23 22 22 21 20
29 33 35 35 32 28 25 23 21 20 19 20 22 25 28 30 32 33 32 29 26 23 22 21 20 20 22 24 26 30 33 34 33 33 32 31 30 28 27 27 25 23
23 26 30 34 36 36 33 31 29 29 28 29 32 34 36 37 38 38 36 31 26 22 22 23 22 22 24 26 28 33 38 40 40 40 39 38 38 37 36 35 34 32
20 22 24 27 32 36 37 37 35 34 34 34 36 37 37 37 38 38 37 33 30 27 25 22 20 22 24 26 30 35 39 42 43 43 42 41 41 41 42 42 43 43
21 22 23 24 27 30 33 37 37 37 37 37 37 38 37 37 37 36 35 34 33 32 27 21 19 21 23 26 31 36 40 42 43 44 44 43 42 42 43 44 46 47
20 23 24 24 25 26 28 31 34 36 38 39 39 39 39 38 37 35 35 34 33 32 28 24 24 25 27 29 32 35 39 40 41 42 44 44 44 45 46 46 45 45
18 21 24 25 26 26 26 27 29 32 35 37 38 39 39 40 39 38 37 34 31 29 28 26 27 29 30 31 33 35 37 38 39 41 40 41 43 46 47 47 46 45
16 19 22 24 26 26 27 28 28 29 31 33 35 36 38 39 39 39 38 35 32 29 27 27 27 28 31 32 33 35 37 38 39 38 35 37 40 43 45 45 45 45
14 15 17 20 24 26 26 27 28 29 30 30 31 33 34 36 37 37 37 35 33 31 29 28 27 28 31 32 33 36 37 39 39 36 34 36 39 39 39 39 40 42